Location: Home
(42.5358°N, 72.7383°W)
Time: 08:48:46
(UTC-04:00)

A-11 Canister half - Pass Details

Date: 30 June 2022
Orbit: 1514 x 1685 km, 47.2° (Epoch: 15 August)

Event Time Altitude Azimuth Distance (km) Brightness Sun altitude
Rises 03:58:27 0° 291° (WNW) 4,912 11.4 -11.8°
Reaches altitude 10° 04:01:39 10° 292° (WNW) 3,907 10.9 -11.4°
Maximum altitude 04:11:42 86° 23° (NNE) 1,623 9.2 -10.1°
Drops below altitude 10° 04:21:20 10° 113° (ESE) 3,764 11.4 -8.9°
Sets 04:24:21 0° 113° (ESE) 4,725 11.9 -8.5°
